Location: Newark
(49.3422°N, 3.6364°E)
Time: 22:54:11
(UTC+00:00)

N. Korean satellite - Visible Passes

Search period start: 17 September 2019 00:00
Search period end: 27 September 2019 00:00
Orbit: 455 x 508 km, 97.2° (Epoch: 16 September)

Date Brightness Start Highest point End Pass type
(mag) Time Alt. Az. Time Alt. Az. Time Alt. Az.
17 Sep 10.0 04:42:41 10° ENE 04:44:17 13° E 04:45:52 10° ESE visible
21 Sep 10.4 04:36:01 10° ENE 04:36:42 10° E 04:37:23 10° E visible
24 Sep 9.8 04:52:18 10° NE 04:54:35 17° E 04:56:51 10° SE visible
